TimeCST,TemperatureF,Dew PointF,Humidity,Sea Level PressureIn,VisibilityMPH,Wind Direction,Wind SpeedMPH,Gust SpeedMPH,PrecipitationIn,Events,Conditions,WindDirDegrees,DateUTC
2:48 AM,75,71,85,29.97,2,NE,2.2,,,,Haze,50,2012-10-29 08:48:00
5:49 AM,73,71,92,29.97,2,NE,2.2,,,,Haze,50,2012-10-29 11:49:00
6:04 AM,73.4,66.2,78,30.06,8.0,North,6.9,-,N/A,,Mostly Cloudy,360,2012-10-29 12:04:00
6:48 AM,71.6,66.2,83,30.07,6.0,NNE,11.5,-,N/A,,Mostly Cloudy,30,2012-10-29 12:48:00
7:50 AM,71.6,66.2,83,30.08,6.0,North,6.9,-,N/A,,Mostly Cloudy,360,2012-10-29 13:50:00
8:40 AM,78,68,65,30.03,6,SE,2.2,,,,Haze,140,2012-10-29 14:40:00
8:53 AM,71.6,66.2,83,30.11,6.0,Calm,Calm,-,N/A,,Mostly Cloudy,0,2012-10-29 14:53:00
9:42 AM,73.4,66.2,78,30.11,6.0,Calm,Calm,-,N/A,,Mostly Cloudy,0,2012-10-29 15:42:00
10:42 AM,75.2,64.4,69,30.11,8.0,NNE,11.5,-,N/A,,Mostly Cloudy,20,2012-10-29 16:42:00
11:40 AM,86,64,38,30.01,6,South,6.7,,,,Haze,180,2012-10-29 17:40:00
11:51 AM,78.8,62.6,57,30.11,8.0,Calm,Calm,-,N/A,,Mostly Cloudy,0,2012-10-29 17:51:00
12:45 PM,80.6,62.6,54,30.09,8.0,Calm,Calm,-,N/A,,Mostly Cloudy,0,2012-10-29 18:45:00
1:49 PM,82.4,62.6,51,30.06,8.0,SSW,11.5,-,N/A,,Mostly Cloudy,210,2012-10-29 19:49:00
2:41 PM,78.8,66.2,65,30.03,8.0,West,13.8,-,N/A,,Mostly Cloudy,260,2012-10-29 20:41:00
2:50 PM,85,66,44,29.94,6,NW,6.7,,,,Haze,320,2012-10-29 20:50:00
3:47 PM,77.0,64.4,65,30.01,8.0,West,15.0,-,N/A,,Mostly Cloudy,270,2012-10-29 21:47:00
4:46 PM,77.0,66.2,69,30.03,8.0,West,6.9,-,N/A,,Mostly Cloudy,280,2012-10-29 22:46:00
5:48 PM,81,70,62,29.93,6,NE,2.2,,,,Haze,50,2012-10-29 23:48:00
5:48 PM,75.2,68.0,78,30.02,6.0,West,6.9,-,N/A,,Mostly Cloudy,280,2012-10-29 23:48:00
7:10 PM,73.4,66.2,78,30.06,6.0,Calm,Calm,-,N/A,,Mostly Cloudy,0,2012-10-30 01:10:00
7:42 PM,73.4,66.2,78,30.06,6.0,Calm,Calm,-,N/A,,Mostly Cloudy,0,2012-10-30 01:42:00
8:48 PM,76,68,70,29.99,5,North,2.2,,,,Haze,0,2012-10-30 02:48:00
8:49 PM,73.4,66.2,78,30.10,8.0,Calm,Calm,-,N/A,,Scattered Clouds,0,2012-10-30 02:49:00
11:47 PM,72,67,81,30.00,5,NE,4.5,,,,Haze,50,2012-10-30 05:47:00